Marfret Guyane — FNMV — position and weather

sailwx.info

Track history (hours):
 
Tides and Currents Weather Stations Pressure Air Temp Water Temp Dewpoint Dewpoint Depression Visibility Wind Speed Wind Dir Waves Ship Positions

Marfret Guyane

Last reported at 2015-May-02 16:33 UTC. Time now 2015-May-04 12:02 UTC.
Position N 36°49' W 026°36'.

Length 170 m; draft 9 m.

Type: Ship (hazmat cat A). MMSI: 226324000.

Date/timePositionNaut miles runAvg speedWind from/ knotsBaromVisibWave heightAir tempDewpointWater temp
2015-May-02 16:33N 36°49' W 026°36'1817.6
2015-May-02 15:34N 36°58' W 026°17'1817.6
2015-May-02 14:34N 37°07' W 025°58'1717.4
2015-May-02 13:34N 37°16' W 025°39'1817.6
2015-May-02 12:34N 37°27' W 025°22'1817.7
2015-May-02 11:34N 37°38' W 025°05'1817.9
2015-May-02 10:34N 37°46' W 024°45'1818.2
2015-May-02 09:34N 37°57' W 024°26'1918.5
2015-May-02 08:34N 38°09' W 024°08'  
2015-Apr-29 15:32N 50°02' W 002°42'7617.8
2015-Apr-29 11:16N 49°42' W 000°48'1419.8
2015-Apr-29 10:34N 49°33' W 000°31'1818.1
2015-Apr-29 09:34N 49°30' W 000°03'9 8.9
2015-Apr-29 08:33N 49°29' E 000°10'0 0.0
2015-Apr-29 07:33N 49°29' E 000°10'0 0.0
2015-Apr-29 06:33N 49°29' E 000°10'0 0.0
2015-Apr-29 05:33N 49°29' E 000°10'0 0.0
2015-Apr-29 04:33N 49°29' E 000°10'0 0.0
2015-Apr-29 03:33N 49°29' E 000°10'0 0.0
2015-Apr-29 02:33N 49°29' E 000°10'0 0.0
2015-Apr-29 01:33N 49°29' E 000°10'0 0.0
2015-Apr-29 00:30N 49°29' E 000°10'0 0.0
2015-Apr-28 23:33N 49°29' E 000°10'0 0.0
2015-Apr-28 22:30N 49°29' E 000°10'0 0.0
2015-Apr-28 21:33N 49°29' E 000°10'0 0.0
2015-Apr-28 20:33N 49°29' E 000°10'0 0.0
2015-Apr-28 19:33N 49°29' E 000°10'0 0.0
2015-Apr-28 18:33N 49°29' E 000°10'0 0.0
2015-Apr-28 17:33N 49°29' E 000°10'0 0.0
2015-Apr-28 16:33N 49°29' E 000°10'0 0.0
2015-Apr-28 15:32N 49°29' E 000°10'0 0.0
2015-Apr-28 14:32N 49°29' E 000°10'0 0.0
2015-Apr-28 13:32N 49°29' E 000°10'0 0.0
2015-Apr-28 12:32N 49°29' E 000°10'0 0.0
2015-Apr-28 11:32N 49°29' E 000°10'0 0.1
2015-Apr-28 10:33N 49°28' E 000°10'5 5.2
2015-Apr-28 09:34N 49°30' E 000°02'4 4.2
2015-Apr-28 08:31N 49°30' W 000°04'0 0.0
2015-Apr-28 07:31N 49°30' W 000°04'0 0.0
2015-Apr-28 06:31N 49°30' W 000°04'0 0.0
2015-Apr-28 05:31N 49°30' W 000°04'0 0.1
2015-Apr-28 04:33N 49°30' W 000°05'9 8.6
2015-Apr-28 03:33N 49°26' E 000°07'1010.2
2015-Apr-28 02:33N 49°27' E 000°23'8 7.9
2015-Apr-28 01:34N 49°26' E 000°35'9 8.5
2015-Apr-28 00:33N 49°30' E 000°46'7 0.2
2015-Apr-26 16:06N 49°28' E 000°56'4 5.6
2015-Apr-26 15:22N 49°24' E 000°52'7 7.7
2015-Apr-26 14:31N 49°30' E 000°46'8 8.1
2015-Apr-26 13:33N 49°26' E 000°36'10 9.7
2015-Apr-26 12:34N 49°26' E 000°21'1212.4
2015-Apr-26 11:33N 49°27' E 000°02'10 9.9
2015-Apr-26 10:34N 49°31' W 000°12'1111.5
2015-Apr-26 09:33N 49°41' W 000°03'1111.0
2015-Apr-26 08:33N 49°50' E 000°06'44 8.1
2015-Apr-26 03:07N 50°31' E 000°32'5 9.1
2015-Apr-26 02:33N 50°35' E 000°36'10 9.5
2015-Apr-26 01:33N 50°41' E 000°49'10 9.9
2015-Apr-26 00:33N 50°47' E 001°00'1111.2
2015-Apr-25 23:33N 50°55' E 001°12'1313.2
2015-Apr-25 22:33N 51°05' E 001°27'1211.8
2015-Apr-25 21:33N 51°15' E 001°38'1111.2
2015-Apr-25 20:33N 51°25' E 001°31'1413.5
2015-Apr-25 19:33N 51°29' E 001°10'1413.6
2015-Apr-25 18:33N 51°29' E 000°48'1312.9
2015-Apr-25 17:34N 51°29' E 000°28'5 4.9
2015-Apr-25 16:34N 51°27' E 000°20'0 0.0
2015-Apr-25 15:33N 51°27' E 000°20'0 0.0
2015-Apr-25 14:34N 51°27' E 000°20'0 0.0
2015-Apr-25 13:33N 51°27' E 000°20'0 0.0
2015-Apr-25 12:34N 51°27' E 000°20'0 0.0
2015-Apr-25 11:32N 51°27' E 000°20'0 0.0
2015-Apr-25 10:33N 51°27' E 000°20'0 0.0
2015-Apr-25 09:34N 51°27' E 000°20'0 0.0
2015-Apr-25 08:33N 51°27' E 000°20'0 0.0
2015-Apr-25 07:34N 51°27' E 000°20'0 0.0
2015-Apr-25 06:33N 51°27' E 000°20'0 0.0
2015-Apr-25 05:33N 51°27' E 000°20'0 0.0
2015-Apr-25 04:33N 51°27' E 000°20'0 0.0
2015-Apr-25 03:33N 51°27' E 000°20'1 0.6
2015-Apr-25 02:33N 51°27' E 000°21'9 8.9
2015-Apr-25 01:33N 51°30' E 000°34'1615.8
2015-Apr-25 00:33N 51°29' E 000°59'1413.6
2015-Apr-24 23:34N 51°29' E 001°21'9 8.6
2015-Apr-24 22:34N 51°29' E 001°35'1414.1
2015-Apr-24 21:34N 51°32' E 001°57'1615.9
2015-Apr-24 20:33N 51°42' E 002°17'1717.0
2015-Apr-24 19:33N 51°55' E 002°35'2216.0
2015-Apr-24 18:09N 52°04' E 003°08'1016.9
2015-Apr-24 17:34N 52°05' E 003°25'1716.6
2015-Apr-24 16:33N 52°03' E 003°51'1111.5
2015-Apr-24 15:34N 51°58' E 004°09'10 9.9
2015-Apr-24 14:34N 51°54' E 004°23'1 1.3
2015-Apr-24 13:34N 51°53' E 004°24'0 0.0
2015-Apr-24 12:31N 51°53' E 004°24'0 0.0
2015-Apr-24 11:31N 51°53' E 004°24'0 0.0
2015-Apr-24 10:31N 51°53' E 004°24'0 0.0
2015-Apr-24 09:34N 51°53' E 004°24'0 0.0
2015-Apr-24 08:31N 51°53' E 004°24'0 0.0
2015-Apr-24 07:34N 51°53' E 004°24'0 0.0
2015-Apr-24 06:31N 51°53' E 004°24'0 0.0
2015-Apr-24 05:31N 51°53' E 004°24'0 0.0
2015-Apr-24 04:31N 51°53' E 004°24'0 0.0
2015-Apr-24 03:31N 51°53' E 004°24'0 0.0
2015-Apr-24 02:31N 51°53' E 004°24'0 0.0
2015-Apr-24 01:34N 51°53' E 004°24'0 0.0
2015-Apr-24 00:28N 51°53' E 004°24'0 0.0
2015-Apr-23 23:34N 51°53' E 004°24'0 0.0
2015-Apr-23 22:31N 51°53' E 004°24'0 0.0
2015-Apr-23 21:34N 51°53' E 004°24'0 0.1
2015-Apr-23 20:34N 51°53' E 004°24'7 6.7
2015-Apr-23 19:34N 51°55' E 004°14'1010.3
2015-Apr-23 18:33N 51°60' E 003°59'1211.9
2015-Apr-23 17:33N 51°59' E 003°40'1413.6
2015-Apr-23 16:33N 51°55' E 003°19'1918.9
2015-Apr-23 15:33N 51°48' E 002°50'1918.5
2015-Apr-23 14:32N 51°37' E 002°27'1918.9
2015-Apr-23 13:33N 51°24' E 002°06'1615.8
2015-Apr-23 12:33N 51°10' E 001°54'1716.6
2015-Apr-23 11:34N 50°60' E 001°33'1616.0
2015-Apr-23 10:33N 50°45' E 001°23'1816.5
2015-Apr-23 09:28N 50°33' E 001°02'1917.6
2015-Apr-23 08:24N 50°24' E 000°37'8116.7
2015-Apr-23 03:33N 50°03' W 001°25'1616.3
2015-Apr-23 02:33N 49°58' W 001°49'1817.6
2015-Apr-23 01:33N 49°55' W 002°17'14718.3
2015-Apr-22 17:33N 48°46' W 005°35'1717.3
2015-Apr-22 16:33N 48°31' W 005°48'  
Track history (hours):
 
Tides and Currents Weather Stations Pressure Air Temp Water Temp Dewpoint Dewpoint Depression Visibility Wind Speed Wind Dir Waves Ship Positions

Marfret Guyane

Last reported at 2015-May-02 16:33 UTC. Time now 2015-May-04 12:02 UTC.
Position N 36°49' W 026°36'.

Length 170 m; draft 9 m.

Type: Ship (hazmat cat A). MMSI: 226324000.

Date/timePositionNaut miles runAvg speedWind from/ knotsBaromVisibWave heightAir tempDewpointWater temp
2015-May-02 16:33N 36°49' W 026°36'1817.6
2015-May-02 15:34N 36°58' W 026°17'1817.6
2015-May-02 14:34N 37°07' W 025°58'1717.4
2015-May-02 13:34N 37°16' W 025°39'1817.6
2015-May-02 12:34N 37°27' W 025°22'1817.7
2015-May-02 11:34N 37°38' W 025°05'1817.9
2015-May-02 10:34N 37°46' W 024°45'1818.2
2015-May-02 09:34N 37°57' W 024°26'1918.5
2015-May-02 08:34N 38°09' W 024°08'  
2015-Apr-29 15:32N 50°02' W 002°42'7617.8
2015-Apr-29 11:16N 49°42' W 000°48'1419.8
2015-Apr-29 10:34N 49°33' W 000°31'1818.1
2015-Apr-29 09:34N 49°30' W 000°03'9 8.9
2015-Apr-29 08:33N 49°29' E 000°10'0 0.0
2015-Apr-29 07:33N 49°29' E 000°10'0 0.0
2015-Apr-29 06:33N 49°29' E 000°10'0 0.0
2015-Apr-29 05:33N 49°29' E 000°10'0 0.0
2015-Apr-29 04:33N 49°29' E 000°10'0 0.0
2015-Apr-29 03:33N 49°29' E 000°10'0 0.0
2015-Apr-29 02:33N 49°29' E 000°10'0 0.0
2015-Apr-29 01:33N 49°29' E 000°10'0 0.0
2015-Apr-29 00:30N 49°29' E 000°10'0 0.0
2015-Apr-28 23:33N 49°29' E 000°10'0 0.0
2015-Apr-28 22:30N 49°29' E 000°10'0 0.0
2015-Apr-28 21:33N 49°29' E 000°10'0 0.0
2015-Apr-28 20:33N 49°29' E 000°10'0 0.0
2015-Apr-28 19:33N 49°29' E 000°10'0 0.0
2015-Apr-28 18:33N 49°29' E 000°10'0 0.0
2015-Apr-28 17:33N 49°29' E 000°10'0 0.0
2015-Apr-28 16:33N 49°29' E 000°10'0 0.0
2015-Apr-28 15:32N 49°29' E 000°10'0 0.0
2015-Apr-28 14:32N 49°29' E 000°10'0 0.0
2015-Apr-28 13:32N 49°29' E 000°10'0 0.0
2015-Apr-28 12:32N 49°29' E 000°10'0 0.0
2015-Apr-28 11:32N 49°29' E 000°10'0 0.1
2015-Apr-28 10:33N 49°28' E 000°10'5 5.2
2015-Apr-28 09:34N 49°30' E 000°02'4 4.2
2015-Apr-28 08:31N 49°30' W 000°04'0 0.0
2015-Apr-28 07:31N 49°30' W 000°04'0 0.0
2015-Apr-28 06:31N 49°30' W 000°04'0 0.0
2015-Apr-28 05:31N 49°30' W 000°04'0 0.1
2015-Apr-28 04:33N 49°30' W 000°05'9 8.6
2015-Apr-28 03:33N 49°26' E 000°07'1010.2
2015-Apr-28 02:33N 49°27' E 000°23'8 7.9
2015-Apr-28 01:34N 49°26' E 000°35'9 8.5
2015-Apr-28 00:33N 49°30' E 000°46'7 0.2
2015-Apr-26 16:06N 49°28' E 000°56'4 5.6
2015-Apr-26 15:22N 49°24' E 000°52'7 7.7
2015-Apr-26 14:31N 49°30' E 000°46'8 8.1
2015-Apr-26 13:33N 49°26' E 000°36'10 9.7
2015-Apr-26 12:34N 49°26' E 000°21'1212.4
2015-Apr-26 11:33N 49°27' E 000°02'10 9.9
2015-Apr-26 10:34N 49°31' W 000°12'1111.5
2015-Apr-26 09:33N 49°41' W 000°03'1111.0
2015-Apr-26 08:33N 49°50' E 000°06'44 8.1
2015-Apr-26 03:07N 50°31' E 000°32'5 9.1
2015-Apr-26 02:33N 50°35' E 000°36'10 9.5
2015-Apr-26 01:33N 50°41' E 000°49'10 9.9
2015-Apr-26 00:33N 50°47' E 001°00'1111.2
2015-Apr-25 23:33N 50°55' E 001°12'1313.2
2015-Apr-25 22:33N 51°05' E 001°27'1211.8
2015-Apr-25 21:33N 51°15' E 001°38'1111.2
2015-Apr-25 20:33N 51°25' E 001°31'1413.5
2015-Apr-25 19:33N 51°29' E 001°10'1413.6
2015-Apr-25 18:33N 51°29' E 000°48'1312.9
2015-Apr-25 17:34N 51°29' E 000°28'5 4.9
2015-Apr-25 16:34N 51°27' E 000°20'0 0.0
2015-Apr-25 15:33N 51°27' E 000°20'0 0.0
2015-Apr-25 14:34N 51°27' E 000°20'0 0.0
2015-Apr-25 13:33N 51°27' E 000°20'0 0.0
2015-Apr-25 12:34N 51°27' E 000°20'0 0.0
2015-Apr-25 11:32N 51°27' E 000°20'0 0.0
2015-Apr-25 10:33N 51°27' E 000°20'0 0.0
2015-Apr-25 09:34N 51°27' E 000°20'0 0.0
2015-Apr-25 08:33N 51°27' E 000°20'0 0.0
2015-Apr-25 07:34N 51°27' E 000°20'0 0.0
2015-Apr-25 06:33N 51°27' E 000°20'0 0.0
2015-Apr-25 05:33N 51°27' E 000°20'0 0.0
2015-Apr-25 04:33N 51°27' E 000°20'0 0.0
2015-Apr-25 03:33N 51°27' E 000°20'1 0.6
2015-Apr-25 02:33N 51°27' E 000°21'9 8.9
2015-Apr-25 01:33N 51°30' E 000°34'1615.8
2015-Apr-25 00:33N 51°29' E 000°59'1413.6
2015-Apr-24 23:34N 51°29' E 001°21'9 8.6
2015-Apr-24 22:34N 51°29' E 001°35'1414.1
2015-Apr-24 21:34N 51°32' E 001°57'1615.9
2015-Apr-24 20:33N 51°42' E 002°17'1717.0
2015-Apr-24 19:33N 51°55' E 002°35'2216.0
2015-Apr-24 18:09N 52°04' E 003°08'1016.9
2015-Apr-24 17:34N 52°05' E 003°25'1716.6
2015-Apr-24 16:33N 52°03' E 003°51'1111.5
2015-Apr-24 15:34N 51°58' E 004°09'10 9.9
2015-Apr-24 14:34N 51°54' E 004°23'1 1.3
2015-Apr-24 13:34N 51°53' E 004°24'0 0.0
2015-Apr-24 12:31N 51°53' E 004°24'0 0.0
2015-Apr-24 11:31N 51°53' E 004°24'0 0.0
2015-Apr-24 10:31N 51°53' E 004°24'0 0.0
2015-Apr-24 09:34N 51°53' E 004°24'0 0.0
2015-Apr-24 08:31N 51°53' E 004°24'0 0.0
2015-Apr-24 07:34N 51°53' E 004°24'0 0.0
2015-Apr-24 06:31N 51°53' E 004°24'0 0.0
2015-Apr-24 05:31N 51°53' E 004°24'0 0.0
2015-Apr-24 04:31N 51°53' E 004°24'0 0.0
2015-Apr-24 03:31N 51°53' E 004°24'0 0.0
2015-Apr-24 02:31N 51°53' E 004°24'0 0.0
2015-Apr-24 01:34N 51°53' E 004°24'0 0.0
2015-Apr-24 00:28N 51°53' E 004°24'0 0.0
2015-Apr-23 23:34N 51°53' E 004°24'0 0.0
2015-Apr-23 22:31N 51°53' E 004°24'0 0.0
2015-Apr-23 21:34N 51°53' E 004°24'0 0.1
2015-Apr-23 20:34N 51°53' E 004°24'7 6.7
2015-Apr-23 19:34N 51°55' E 004°14'1010.3
2015-Apr-23 18:33N 51°60' E 003°59'1211.9
2015-Apr-23 17:33N 51°59' E 003°40'1413.6
2015-Apr-23 16:33N 51°55' E 003°19'1918.9
2015-Apr-23 15:33N 51°48' E 002°50'1918.5
2015-Apr-23 14:32N 51°37' E 002°27'1918.9
2015-Apr-23 13:33N 51°24' E 002°06'1615.8
2015-Apr-23 12:33N 51°10' E 001°54'1716.6
2015-Apr-23 11:34N 50°60' E 001°33'1616.0
2015-Apr-23 10:33N 50°45' E 001°23'1816.5
2015-Apr-23 09:28N 50°33' E 001°02'1917.6
2015-Apr-23 08:24N 50°24' E 000°37'8116.7
2015-Apr-23 03:33N 50°03' W 001°25'1616.3
2015-Apr-23 02:33N 49°58' W 001°49'1817.6
2015-Apr-23 01:33N 49°55' W 002°17'14718.3
2015-Apr-22 17:33N 48°46' W 005°35'1717.3
2015-Apr-22 16:33N 48°31' W 005°48'  

Dump ship's entire track history